This is the latest recevied weather packets stored in our database for station/object K0APR. If no packets are shown the sender has not sent any weather packets the latest 10 day(s).
| Time | Temp. | Humidity | Pressure | Rain* | Wind** | Luminosity | Snow |
|---|---|---|---|---|---|---|---|
| 1788454147 | 32.22° C | 57% | 1008.1 hPa | 0 mm | - | 639 W/m² | - |
| 1788453842 | 32.22° C | 57% | 1008.1 hPa | 0 mm | - | 571 W/m² | - |
| 1788453541 | 32.22° C | 58% | 1008.1 hPa | 0 mm | - | 490 W/m² | - |
| 1788453238 | 31.67° C | 58% | 1007.7 hPa | 0 mm | - | 613 W/m² | - |
| 1788452934 | 31.67° C | 59% | 1007.7 hPa | 0 mm | - | 584 W/m² | - |
| 1788452630 | 31.11° C | 59% | 1008.1 hPa | 0 mm | - | 549 W/m² | - |
| 1788452326 | 31.11° C | 58% | 1008.4 hPa | 0 mm | - | 535 W/m² | - |
| 1788452021 | 31.67° C | 59% | 1008.1 hPa | 0 mm | - | 556 W/m² | - |
| 1788451717 | 31.67° C | 58% | 1008.1 hPa | 0 mm | - | 556 W/m² | - |
| 1788451415 | 30.56° C | 59% | 1008.1 hPa | 0 mm | - | 534 W/m² | - |
| 1788451114 | 30° C | 62% | 1007.7 hPa | 0 mm | - | 482 W/m² | - |
| 1788450809 | 31.11° C | 62% | 1007.7 hPa | 0 mm | - | 298 W/m² | - |
| 1788450504 | 30.56° C | 61% | 1007.7 hPa | 0 mm | - | 501 W/m² | - |
| 1788450201 | 31.11° C | 61% | 1007.7 hPa | 0 mm | - | 466 W/m² | - |
| 1788449896 | 30.56° C | 61% | 1007.4 hPa | 0 mm | - | 491 W/m² | - |
| 1788449592 | 30.56° C | 62% | 1007.4 hPa | 0 mm | - | 458 W/m² | - |
| 1788449288 | 30.56° C | 63% | 1007.7 hPa | 0 mm | - | 471 W/m² | - |
| 1788448984 | 30° C | 64% | 1007.7 hPa | 0 mm | - | 450 W/m² | - |
| 1788448684 | 30° C | 64% | 1007.7 hPa | 0 mm | - | 411 W/m² | - |
| 1788448379 | 29.44° C | 65% | 1007.7 hPa | 0 mm | - | 399 W/m² | - |
| 1788448074 | 28.89° C | 67% | 1007.7 hPa | 0 mm | - | 393 W/m² | - |
| 1788447774 | 28.33° C | 68% | 1007.7 hPa | 0 mm | - | 363 W/m² | - |
| 1788447469 | 28.33° C | 69% | 1008.1 hPa | 0 mm | - | 154 W/m² | - |
| 1788447164 | 28.33° C | 68% | 1008.1 hPa | 0 mm | - | 384 W/m² | - |
| 1788446863 | 27.78° C | 69% | 1008.1 hPa | 0 mm | - | 369 W/m² | - |
* Rain latest hour (hover to see other rain measurements)
** Current wind speed in m/s (hover to see current wind gust speed)